Regional Weather Roundup
Issued by NWS

Home | Current Version | Previous Version | Text Only | Print | Product List | Glossary On
Versions: 1 2 3 4 5 6 7 8 9 10 11 12 13 14 15 16 17 18 19 20 21 22 23 24 25 26 27 28 29 30 31 32 33 34 35 36 37 38 39 40 41 42 43 44 45 46 47 48 49 50
000
ASCA44 KEWX 222020
RWRMX

LATIN AMERICA AND CARIBBEAN REGIONAL WEATHER ROUNDUP
NATIONAL WEATHER SERVICE AUSTIN/SAN ANTONIO TX
300 PM CDT FRI AUG 22 2014

NOTE: "FAIR" INDICATED FEW OR NO CLOUDS BELOW 12,000 FEET WITH NO
SIGNIFICANT WEATHER AND/OR OBSTRUCTIONS TO VISIBILITY.

BAJA CALIFORNIA

CITY           SKY/WX    TMP DP  RH WIND       PRES   REMARKS
LORETO         CLOUDY    91  73  55 NE12      29.87S HX 100
LA PAZ         MOSUNNY   91  68  46 N12       29.89  HX  95
MEXICALI       SUNNY     88  57  35 CALM      29.91
S.J. DEL CABO  MOSUNNY   93  68  43 S6        29.89F HX  97
TIJUANA        SUNNY     79  59  50 W9        29.99F

NORTHWESTERN MEXICO

CITY           SKY/WX    TMP DP  RH WIND       PRES   REMARKS
CULIACAN       PTSUNNY   95  75  52 SE6       29.87  HX 107
DURANGO        MOSUNNY   73  52  46 CALM      30.25F
GUAYMAS        MOSUNNY   91  79  66 S6        29.85  HX 107
HERMOSILLO     PTSUNNY   95  68  41 CALM      29.94  HX  99
LOS MOCHIS     PTSUNNY   90  70  51 SE7       29.89F HX  95
OBREGON        PTSUNNY   90  72  55 NW5       29.87  HX  96

NORTHEASTERN MEXICO

CITY           SKY/WX    TMP DP  RH WIND       PRES   REMARKS
CHIHUAHUA      PTSUNNY   81  57  44 E6        30.14
MATAMOROS      PTSUNNY   97  73  46 E12       30.03  HX 107
MONCLOVA       MOSUNNY  N/A N/A N/A VRB6      29.98
MONTERREY      PTSUNNY   99  43  14 SE15      29.95F HX  94
NUEVO LAREDO   SUNNY    102  61  25 SE17      29.95  HX 103
PIEDRAS NEGRAS SUNNY    100  54  20 SE12      29.97F HX  98
REYNOSA        PTSUNNY   95  59  30 S9G21     29.98  HX  94
SALTILLO       MOSUNNY   88  48  25 CALM      30.18F
TORREON        MOSUNNY   86  50  28 S6        30.10F
CD. VICTORIA   MOSUNNY   95  50  21 S12       30.01  HX  92

WESTERN MEXICO

CITY           SKY/WX    TMP DP  RH WIND       PRES   REMARKS
AGUASCALIENTES PTSUNNY   72  45  37 SE7       30.27
COLIMA         PTSUNNY   86  63  45 N12       29.98F
DEL BAJIO      PTSUNNY   75  52  43 SE5       30.29F
GUADALAJARA      N/A    N/A N/A N/A MISG        N/A
MANZANILLO     PTSUNNY   90  75  62 SW9       29.79F HX 100
MAZATLAN       MOSUNNY   88  75  66 SW12      29.84F HX  97
P. VALLARTA    PTSUNNY   88  72  58 SW9       29.86F HX  94
URUAPAN        CLOUDY    73  59  60 S9        30.18F
ZACATECAS      PTSUNNY   75  48  38 CALM      30.29

CENTRAL MEXICO

CITY           SKY/WX    TMP DP  RH WIND       PRES   REMARKS
CUERNAVACA     CLOUDY    79  52  38 S7        30.15F
MEXICO CITY    CLOUDY    70  41  35 NE5       30.33F
MORELIA        PTSUNNY   73  55  53 N2        30.23
POZA RICA      PTSUNNY   90  79  70 E7        30.00  HX 105
PUEBLA         CLOUDY    66  46  48 S8        30.38F
QUERETARO      PTSUNNY   77  48  36 SE7       30.30F
S. LUIS POTOSI MOSUNNY   75  50  41 SE14      30.27F
TAMPICO        PTSUNNY   84  73  70 CALM      30.02F HX  91
TOLUCA         CLOUDY    64  43  45 S13       30.39F

SOUTHERN MEXICO

CITY           SKY/WX    TMP DP  RH WIND       PRES   REMARKS
ACAPULCO       CLOUDY    82  73  74 E12       29.87F
B. DE HUATULCO CLOUDY    90  75  62 S12       29.95  HX 100
OAXACA         PTSUNNY   79  50  36 E17       30.19F
P. ESCONDIDO   CLOUDY    84  77  79 SE17      30.06S HX  94
VERACRUZ       PTSUNNY   84  73  70 N7        29.98F HX  91
ZIHUATANEJO    PTSUNNY   90  77  66 SE10      29.86F HX 102

YUCATAN PENINSULA

CITY           SKY/WX    TMP DP  RH WIND       PRES   REMARKS
CAMPECHE       PTSUNNY   91  75  59 CALM      29.92F HX 102
CANCUN         MOSUNNY   90  75  62 E10       29.98F HX 100
CHETUMAL       MOSUNNY   90  75  62 SE17      29.93F HX 100
CD. DEL CARMEN PTSUNNY   90  72  55 S6        29.94  HX  96
COZUMEL        MOSUNNY   86  75  70 E14       29.96F HX  95
MERIDA         PTSUNNY   93  68  43 SE12      29.93F HX  97
MINATITLAN     MOSUNNY   88  68  51 N14       29.93  HX  91
TAPACHULA      MOSUNNY   86  79  79 SW10      29.91F HX  99
TUX. GUTIERREZ PTSUNNY   90  66  45 SE2       29.94F HX  92
VILLAHERMOSA   PTSUNNY   93  70  46 NE15      29.94F HX  99

CENTRAL AMERICA

CITY           SKY/WX    TMP DP  RH WIND       PRES   REMARKS
BELIZE CITY    SHOWER    81  79  94 E9        29.92F
MANAGUA        PTCLDY    90  72  55 E14       29.80F HX  96

CARIBBEAN

CITY           SKY/WX    TMP DP  RH WIND       PRES   REMARKS
ARUBA          MOSUNNY   90  75  62 NE8       29.71F HX 100
KINGSTON       MOSUNNY   90  75  62 S10       29.83S HX 100
NASSAU         PTSUNNY   88  75  66 NE10      30.01F HX  97
SAN JUAN       LGT RAIN  79  75  89 SE10G20   29.84S
SANTO DOMINGO  LGT RAIN  82  77  83 NW6         N/A  HX  91
ST. KITTS      MOSUNNY   84  75  74 S10       29.89S HX  92
ST. MAARTEN    MOSUNNY   84  77  79 SE14      29.89S HX  94

$$



USA.gov is the U.S. government's official web portal to all federal, state and local government web resources and services.